Location: Unspecified
(0.0000°N, 0.0000°E)
Time: 07:35:30
(UTC+00:00)

Envisat - Pass Details

Date: 31 July 2021
Orbit: 764 x 766 km, 98.2° (Epoch: 31 July)

Event Time Altitude Azimuth Distance (km) Brightness Sun altitude
Rises 05:32:25 0° 352° (N) 3,213 6.4 -8.1°
Reaches altitude 10° 05:34:58 10° 341° (NNW) 2,290 5.5 -7.5°
Maximum altitude 05:39:17 29° 282° (WNW) 1,381 3.9 -6.4°
Drops below altitude 10° 05:43:37 10° 223° (SW) 2,300 4.9 -5.4°
Sets 05:46:12 0° 212° (SSW) 3,229 5.8 -4.8°
